KM5HG-3 Weather Reports


Display with metric or nautical units.
time (UTC)temp
F
wind
direction
speed
MPH
gust
MPH
rain 1hr
in
rain 24hr
in
rain mn
in
humidity
%
barometer
mb
20170817232122 93 0 0.0 0.0 0.00 0.00 0.00
20170817231622 98 0 0.0 0.0 0.00 0.00 0.00
20170817231122 98 0 0.0 0.0 0.00 0.00 0.00
20170817230623 93 0 0.0 0.0 0.00 0.00 0.00
20170817230123 92 263 1.0 5.0 0.00 0.00 0.00
20170817225622 99 242 0.0 2.0 0.00 0.00 0.00
20170817225122 99 291 1.0 4.0 0.00 0.00 0.00
20170817224622 98 343 1.0 4.0 0.00 0.00 0.00
20170817224122 101 0 0.0 0.0 0.00 0.00 0.00
20170817223623 99 326 0.0 2.0 0.00 0.00 0.00
20170817223122 97 11 2.0 4.0 0.00 0.00 0.00
20170817222622 92 14 4.0 5.0 0.00 0.00 0.00
20170817222122 90 34 4.0 5.0 0.00 0.00 0.00
20170817221622 87 24 4.0 6.0 0.00 0.00 0.00
20170817221122 88 39 3.0 6.0 0.00 0.00 0.00
20170817220622 93 45 4.0 6.0 0.00 0.00 0.00
20170817220122 93 72 5.0 7.0 0.00 0.00 0.00
20170817215622 95 82 2.0 4.0 0.00 0.00 0.00
20170817215122 90 111 3.0 4.0 0.00 0.00 0.00
20170817214622 94 65 3.0 5.0 0.00 0.00 0.00
20170817214122 93 76 0.0 3.0 0.00 0.00 0.00
20170817213622 91 89 4.0 8.0 0.00 0.00 0.00
20170817213122 90 101 3.0 5.0 0.00 0.00 0.00
20170817212621 88 132 4.0 5.0 0.00 0.00 0.00
20170817212121 90 107 3.0 6.0 0.00 0.00 0.00
20170817211622 94 134 3.0 6.0 0.00 0.00 0.00
20170817211136 93 152 2.0 4.0 0.00 0.00 0.00
20170817210630 87 152 4.0 7.0 0.00 0.00 0.00
20170817210125 90 159 3.0 7.0 0.00 0.00 0.00
20170817205623 92 162 3.0 6.0 0.00 0.00 0.00
20170817205125 95 191 3.0 7.0 0.00 0.00 0.00
20170817204621 95 145 3.0 5.0 0.00 0.00 0.00
20170817204121 95 187 2.0 6.0 0.00 0.00 0.00
20170817203621 91 146 2.0 7.0 0.00 0.00 0.00
20170817203121 91 149 4.0 7.0 0.00 0.00 0.00
20170817202621 93 153 3.0 6.0 0.00 0.00 0.00
20170817202123 95 153 2.0 6.0 0.00 0.00 0.00
20170817201625 92 170 3.0 6.0 0.00 0.00 0.00
20170817201121 88 152 4.0 6.0 0.00 0.00 0.00
20170817200621 95 208 4.0 6.0 0.00 0.00 0.00
20170817200121 93 200 4.0 6.0 0.00 0.00 0.00
20170817195623 90 136 3.0 6.0 0.00 0.00 0.00
20170817195123 91 135 5.0 9.0 0.00 0.00 0.00
20170817194623 91 188 6.0 9.0 0.00 0.00 0.00
20170817194125 90 124 6.0 9.0 0.00 0.00 0.00
20170817193623 89 132 6.0 9.0 0.00 0.00 0.00
20170817193125 90 146 5.0 9.0 0.00 0.00 0.00
20170817192623 90 166 5.0 8.0 0.00 0.00 0.00
20170817191623 90 152 4.0 8.0 0.00 0.00 0.00
20170817191124 91 113 5.0 10.0 0.00 0.00 0.00
20170817190625 90 163 5.0 8.0 0.00 0.00 0.00
20170817190127 90 155 5.0 8.0 0.00 0.00 0.00
20170817185623 92 158 4.0 7.0 0.00 0.00 0.00
20170817185127 91 150 2.0 6.0 0.00 0.00 0.00
20170817184623 92 141 1.0 4.0 0.00 0.00 0.00
20170817184123 89 142 2.0 5.0 0.00 0.00 0.00
20170817183623 98 125 1.0 3.0 0.00 0.00 0.00
20170817183123 98 212 1.0 5.0 0.00 0.00 0.00
20170817182624 98 200 1.0 4.0 0.00 0.00 0.00
20170817182123 98 83 0.0 3.0 0.00 0.00 0.00
20170817181623 96 200 2.0 6.0 0.00 0.00 0.00
20170817181125 97 159 2.0 5.0 0.00 0.00 0.00
20170817180627 94 131 1.0 5.0 0.00 0.00 0.00
20170817180124 99 68 1.0 3.0 0.00 0.00 0.00
20170817175123 87 28 0.0 2.0 0.00 0.00 0.00
20170817174625 88 58 1.0 3.0 0.00 0.00 0.00
20170817174122 90 62 1.0 5.0 0.00 0.00 0.00
20170817173625 91 69 3.0 5.0 0.00 0.00 0.00
20170817173126 98 263 0.0 2.0 0.00 0.00 0.00
20170817172623 100 232 1.0 4.0 0.00 0.00 0.00
20170817172123 100 0 0.0 0.0 0.00 0.00 0.00
20170817171623 92 0 0.0 0.0 0.00 0.00 0.00
20170817171123 93 100 1.0 3.0 0.00 0.00 0.00
20170817170623 97 0 0.0 0.0 0.00 0.00 0.00
20170817170123 94 0 0.0 0.0 0.00 0.00 0.00
20170817165623 93 176 1.0 4.0 0.00 0.00 0.00
20170817165123 88 176 0.0 4.0 0.00 0.00 0.00
20170817164623 92 146 0.0 1.0 0.00 0.00 0.00
20170817164124 95 212 1.0 3.0 0.00 0.00 0.00
20170817163626 93 143 1.0 5.0 0.00 0.00 0.00
20170817162623 96 0 0.0 0.0 0.00 0.00 0.00
20170817162123 98 0 0.0 0.0 0.00 0.00 0.00
20170817161622 99 0 0.0 0.0 0.00 0.00 0.00
20170817161123 92 15 1.0 3.0 0.00 0.00 0.00
20170817160624 92 13 1.0 3.0 0.00 0.00 0.00
20170817160123 95 0 0.0 0.0 0.00 0.00 0.00
20170817155623 90 339 0.0 2.0 0.00 0.00 0.00
20170817155123 86 39 0.0 1.0 0.00 0.00 0.00
20170817154623 85 339 1.0 3.0 0.00 0.00 0.00
20170817154125 85 326 1.0 2.0 0.00 0.00 0.00
20170817153623 88 352 1.0 4.0 0.00 0.00 0.00
20170817153123 88 13 1.0 3.0 0.00 0.00 0.00
20170817152623 86 14 1.0 2.0 0.00 0.00 0.00
20170817152123 85 7 2.0 5.0 0.00 0.00 0.00
20170817151628 81 4 4.0 5.0 0.00 0.00 0.00
20170817151123 81 38 3.0 4.0 0.00 0.00 0.00
20170817150625 83 31 2.0 4.0 0.00 0.00 0.00
20170817150123 81 21 1.0 4.0 0.00 0.00 0.00
20170817145623 81 311 1.0 3.0 0.00 0.00 0.00
20170817145125 80 336 2.0 3.0 0.00 0.00 0.00
20170817144623 81 330 2.0 4.0 0.00 0.00 0.00
20170817143624 83 339 2.0 5.0 0.00 0.00 0.00
20170817143132 83 270 3.0 5.0 0.00 0.00 0.00
20170817142625 79 257 3.0 6.0 0.00 0.00 0.00
20170817142126 80 281 2.0 4.0 0.00 0.00 0.00
20170817141623 83 166 0.0 1.0 0.00 0.00 0.00
20170817141123 83 0 0.0 0.0 0.00 0.00 0.00
20170817140624 87 0 0.0 0.0 0.00 0.00 0.00
20170817140123 91 0 0.0 0.0 0.00 0.00 0.00
20170817135625 88 0 0.0 0.0 0.00 0.00 0.00
20170817135124 88 0 0.0 0.0 0.00 0.00 0.00
20170817134623 84 0 0.0 0.0 0.00 0.00 0.00
20170817134128 80 0 0.0 0.0 0.00 0.00 0.00
20170817133623 79 0 0.0 0.0 0.00 0.00 0.00
20170817132622 77 0 0.0 0.0 0.00 0.00 0.00
20170817132126 73 0 0.0 0.0 0.00 0.00 0.00
20170817131628 73 0 0.0 0.0 0.00 0.00 0.00
20170817131126 72 0 0.0 0.0 0.00 0.00 0.00
20170817130625 72 0 0.0 0.0 0.00 0.00 0.00
20170817130125 72 0 0.0 0.0 0.00 0.00 0.00
20170817125623 72 0 0.0 0.0 0.00 0.00 0.00
20170817125123 72 0 0.0 0.0 0.00 0.00 0.00
20170817124625 71 0 0.0 0.0 0.00 0.00 0.00
20170817124124 70 0 0.0 0.0 0.00 0.00 0.00
20170817123625 70 0 0.0 0.0 0.00 0.00 0.00
20170817123124 70 0 0.0 0.0 0.00 0.00 0.00
20170817122623 70 0 0.0 0.0 0.00 0.00 0.00
20170817122123 70 0 0.0 0.0 0.00 0.00 0.00
20170817121624 70 0 0.0 0.0 0.00 0.00 0.00
20170817121126 69 0 0.0 0.0 0.00 0.00 0.00
20170817120624 69 0 0.0 0.0 0.00 0.00 0.00
20170817120144 69 0 0.0 0.0 0.00 0.00 0.00
20170817115622 69 0 0.0 0.0 0.00 0.00 0.00
20170817115129 69 0 0.0 0.0 0.00 0.00 0.00
20170817114626 69 0 0.0 0.0 0.00 0.00 0.00
20170817114127 69 0 0.0 0.0 0.00 0.00 0.00
20170817113624 69 0 0.0 0.0 0.00 0.00 0.00
20170817113123 69 0 0.0 0.0 0.00 0.00 0.00
20170817112623 69 0 0.0 0.0 0.00 0.00 0.00
20170817112126 69 0 0.0 0.0 0.00 0.00 0.00
20170817111622 69 0 0.0 0.0 0.00 0.00 0.00
20170817111123 69 0 0.0 0.0 0.00 0.00 0.00
20170817110624 69 0 0.0 0.0 0.00 0.00 0.00
20170817110122 69 0 0.0 0.0 0.00 0.00 0.00
20170817105624 69 0 0.0 0.0 0.00 0.00 0.00
20170817105125 69 0 0.0 0.0 0.00 0.00 0.00
20170817104622 69 186 0.0 2.0 0.00 0.00 0.00
20170817104125 69 169 1.0 3.0 0.00 0.00 0.00
20170817103622 69 136 0.0 1.0 0.00 0.00 0.00
20170817103122 69 159 2.0 3.0 0.00 0.00 0.00
20170817102622 69 142 2.0 4.0 0.00 0.00 0.00
20170817102122 69 0 0.0 0.0 0.00 0.00 0.00
20170817101630 69 0 0.0 0.0 0.00 0.00 0.00
20170817101122 69 0 0.0 0.0 0.00 0.00 0.00
20170817100636 69 0 0.0 0.0 0.00 0.00 0.00
20170817100122 69 0 0.0 0.0 0.00 0.00 0.00
20170817095622 69 0 0.0 0.0 0.00 0.00 0.00
20170817095122 69 0 0.0 0.0 0.00 0.00 0.00
20170817094622 69 195 0.0 2.0 0.00 0.00 0.00
20170817094122 69 0 0.0 0.0 0.00 0.00 0.00
20170817093622 69 0 0.0 0.0 0.00 0.00 0.00
20170817093122 69 191 0.0 2.0 0.00 0.00 0.00
20170817092622 70 0 0.0 0.0 0.00 0.00 0.00
20170817092122 69 0 0.0 0.0 0.00 0.00 0.00
20170817091626 69 0 0.0 0.0 0.00 0.00 0.00
20170817091124 69 0 0.0 0.0 0.00 0.00 0.00
20170817090625 70 0 0.0 0.0 0.00 0.00 0.00
20170817090123 70 0 0.0 0.0 0.00 0.00 0.00
20170817085622 70 0 0.0 0.0 0.00 0.00 0.00
20170817085122 70 0 0.0 0.0 0.00 0.00 0.00
20170817084627 70 0 0.0 0.0 0.00 0.00 0.00
20170817084126 70 0 0.0 0.0 0.00 0.00 0.00
20170817083632 70 0 0.0 0.0 0.00 0.00 0.00
20170817083122 70 0 0.0 0.0 0.00 0.00 0.00
20170817082624 70 0 0.0 0.0 0.00 0.00 0.00
20170817082123 70 0 0.0 0.0 0.00 0.00 0.00
20170817081622 70 0 0.0 0.0 0.00 0.00 0.00
20170817081134 70 0 0.0 0.0 0.00 0.00 0.00
20170817080623 70 229 1.0 3.0 0.00 0.00 0.00
20170817080124 70 208 2.0 5.0 0.00 0.00 0.00
20170817075622 70 242 3.0 5.0 0.00 0.00 0.00
20170817075122 70 204 0.0 2.0 0.00 0.00 0.00
20170817074622 70 250 2.0 4.0 0.00 0.00 0.00
20170817074124 70 255 1.0 4.0 0.00 0.00 0.00
20170817073622 71 259 3.0 6.0 0.00 0.00 0.00
20170817073125 71 226 3.0 6.0 0.00 0.00 0.00
20170817072623 70 156 4.0 9.0 0.00 0.00 0.00
20170817072122 70 142 6.0 10.0 0.00 0.00 0.00
20170817071624 70 143 5.0 8.0 0.00 0.00 0.00
20170817071123 70 158 6.0 9.0 0.00 0.00 0.00
20170817070622 71 163 5.0 8.0 0.00 0.00 0.00
20170817070122 71 155 5.0 7.0 0.00 0.00 0.00
20170817065622 71 150 4.0 6.0 0.00 0.00 0.00
20170817065122 70 145 5.0 8.0 0.00 0.00 0.00
20170817064622 70 136 5.0 7.0 0.00 0.00 0.00
20170817064122 71 120 5.0 7.0 0.00 0.00 0.00
20170817063622 71 158 4.0 7.0 0.00 0.00 0.00
20170817063123 70 146 4.0 7.0 0.00 0.00 0.00
20170817062622 71 159 5.0 7.0 0.00 0.00 0.00
20170817062138 70 155 5.0 7.0 0.00 0.00 0.00
20170817061622 71 166 4.0 7.0 0.00 0.00 0.00
20170817061122 71 149 5.0 7.0 0.00 0.00 0.00
20170817060622 71 148 1.0 3.0 0.00 0.00 0.00
20170817060122 70 0 0.0 0.0 0.00 0.00 0.00
20170817055623 71 114 1.0 3.0 0.00 0.00 0.00
20170817055123 70 125 5.0 7.0 0.00 0.00 0.00
20170817054622 71 141 5.0 7.0 0.00 0.00 0.00
20170817054122 71 135 5.0 6.0 0.00 0.00 0.00
20170817053624 71 155 4.0 5.0 0.00 0.00 0.00
20170817053511 71 236 3.0 6.0 0.00 0.00 0.00
20170817053122 71 149 3.0 5.0 0.00 0.00 0.00
20170817052623 71 236 3.0 6.0 0.00 0.00 0.00
20170817052124 70 225 2.0 4.0 0.00 0.00 0.00
20170817051624 70 200 2.0 4.0 0.00 0.00 0.00
20170817051124 71 285 2.0 4.0 0.00 0.00 0.00
20170817050624 71 295 1.0 4.0 0.00 0.00 0.00
20170817050124 71 120 2.0 5.0 0.00 0.00 0.00
20170817045625 71 135 4.0 7.0 0.00 0.00 0.00
20170817045124 71 149 6.0 8.0 0.00 0.00 0.00
20170817044624 71 152 5.0 7.0 0.00 0.00 0.00
20170817044124 71 89 4.0 6.0 0.00 0.00 0.00
20170817043625 71 160 4.0 6.0 0.00 0.00 0.00
20170817043124 70 122 5.0 6.0 0.00 0.00 0.00
20170817042624 70 93 3.0 5.0 0.00 0.00 0.00
20170817042124 70 291 3.0 5.0 0.00 0.00 0.00
20170817041624 70 302 3.0 5.0 0.00 0.00 0.00
20170817041124 70 326 6.0 10.0 0.00 0.00 0.00
20170817040624 69 321 5.0 9.0 0.00 0.00 0.00
20170817040123 70 356 7.0 10.0 0.00 0.00 0.00
20170817035624 70 352 7.0 11.0 0.00 0.00 0.00
20170817035124 74 326 8.0 14.0 0.00 0.00 0.00
20170817034624 74 329 10.0 16.0 0.00 0.00 0.00
20170817034124 74 311 9.0 13.0 0.00 0.00 0.00
20170817033624 76 325 10.0 15.0 0.00 0.00 0.00
20170817033124 75 312 9.0 17.0 0.00 0.00 0.00
20170817032624 76 3 10.0 13.0 0.00 0.00 0.00
20170817032124 77 325 8.0 13.0 0.00 0.00 0.00
20170817031624 78 271 5.0 12.0 0.00 0.00 0.00
20170817031124 79 0 0.0 0.0 0.00 0.00 0.00
20170817030624 79 0 0.0 0.0 0.00 0.00 0.00
20170817030124 79 0 0.0 0.0 0.00 0.00 0.00
20170817025624 79 0 0.0 0.0 0.00 0.00 0.00
20170817025125 78 0 0.0 0.0 0.00 0.00 0.00
20170817024624 79 0 0.0 0.0 0.00 0.00 0.00
20170817024124 79 0 0.0 0.0 0.00 0.00 0.00
20170817023623 79 0 0.0 0.0 0.00 0.00 0.00
20170817023124 78 0 0.0 0.0 0.00 0.00 0.00
20170817022623 78 0 0.0 0.0 0.00 0.00 0.00
20170817022123 78 0 0.0 0.0 0.00 0.00 0.00
20170817021623 79 0 0.0 0.0 0.00 0.00 0.00
20170817021123 79 0 0.0 0.0 0.00 0.00 0.00
20170817020623 79 0 0.0 0.0 0.00 0.00 0.00
20170817020123 80 0 0.0 0.0 0.00 0.00 0.00
20170817015623 80 0 0.0 0.0 0.00 0.00 0.00
20170817015123 80 124 0.0 1.0 0.00 0.00 0.00
20170817014623 81 159 1.0 3.0 0.00 0.00 0.00
20170817014123 82 0 0.0 0.0 0.00 0.00 0.00
20170817013623 82 0 0.0 0.0 0.00 0.00 0.00
20170817013123 82 0 0.0 0.0 0.00 0.00 0.00
20170817012623 82 173 1.0 3.0 0.00 0.00 0.00
20170817012123 82 160 3.0 4.0 0.00 0.00 0.00
20170817011623 82 150 2.0 3.0 0.00 0.00 0.00
20170817011123 82 156 1.0 4.0 0.00 0.00 0.00
20170817010623 83 170 3.0 5.0 0.00 0.00 0.00
20170817010123 83 153 3.0 5.0 0.00 0.00 0.00
20170817005623 83 170 2.0 6.0 0.00 0.00 0.00
20170817005123 83 190 3.0 5.0 0.00 0.00 0.00
20170817004623 83 160 4.0 7.0 0.00 0.00 0.00
20170817004125 84 159 5.0 8.0 0.00 0.00 0.00
20170817003624 85 155 6.0 8.0 0.00 0.00 0.00
20170817002623 86 198 6.0 11.0 0.00 0.00 0.00
20170817002123 86 181 6.0 10.0 0.00 0.00 0.00
20170817001623 86 186 7.0 10.0 0.00 0.00 0.00
20170817001123 86 172 9.0 15.0 0.00 0.00 0.00
20170817000629 87 138 7.0 12.0 0.00 0.00 0.00
20170817000123 87 191 8.0 12.0 0.00 0.00 0.00
20170816235623 88 201 6.0 10.0 0.00 0.00 0.00
20170816235123 87 142 7.0 13.0 0.00 0.00 0.00
20170816234624 88 200 7.0 11.0 0.00 0.00 0.00
20170816234123 88 176 8.0 14.0 0.00 0.00 0.00
20170816233623 88 191 8.0 13.0 0.00 0.00 0.00
20170816233123 88 176 8.0 13.0 0.00 0.00 0.00
20170816232623 90 155 7.0 12.0 0.00 0.00 0.00